User: anonymous   Login
Location: M.A.R.S.Observatory
(35.4031°N, 81.5481°W)
Time: 07:54:00
(UTC-04:00)
Language:

SL-8 R/B - Orbit

View from above orbital plane
View from above orbital plane
View from above satellite
View from above satellite

Ground track
Ground track

The orbit data is extracted from the following two-line orbital elements,

1 33066U 08031G   15142.78252162  .00000179  00000-0  62920-4 0  9996
2 33066 048.4448 047.7300 0007485 162.9718 237.1282 14.69225891371521
Epoch (UTC): 22 May 2015 18:46:49
Eccentricity: 0.0007485
inclination: 48.4448°
perigee height: 658 km
apogee height: 669 km
right ascension of ascending node: 47.7300°
argument of perigee: 162.9718°
revolutions per day: 14.69225891
mean anomaly at epoch: 237.1282°
orbit number at epoch: 37152

The dashed part of the orbit path shows where the satellite is in the earth's shadow,  

DLR